星链-35865(STARLINK-35865)

导读

STARLINK-35865是美国SpaceX公司星链(Starlink)星座的卫星,于2026年2月16日由猎鹰9号火箭发射入近地轨道。作为星链组网任务的组成部分,它旨在为全球偏远、网络欠发达区域提供低延迟、高速宽带互联网服务,依托低轨卫星网络优势,弥补地面基础设施覆盖盲区,进一步扩充星链在轨运营卫星规模,巩固全球卫星互联网布局。

Basic Information
目录编号:
67826
目录名称:
STARLINK-35865
国际标识:
2026-033F
轨道中心:
EARTH
卫星名称:
星链-35865
卫星全名:
星链-35865(STARLINK-35865)
卫星状态:
在轨 (已飞行200 天)
发射日期:
2026-02-16 UTC
国别 :
美国 (US)
星等 :
--
Orbit Information
数据来源 国际轨道数据
星历时间: 2026-09-03T20:52:24+0800
22小时前
查看轨道信息
半长轴: 6861.164km
偏心率: 0.0003422
轨道倾角: 43.004°
近地点辐角 278.781°
升交点赤经 342.644°
平近点角 81.265°
近地点: 480.679km
远地点: 485.375km
周期: 94.266分钟
每日圈数: 15.275877
Detailed Information
固有亮度:
5
最大亮度:
2.5
卫星平台:
Starlink V1.0
覆盖范围:
全球
运营商:
太空探索技术公司
运营商所在国:
美国
制造商(研发单位):
太空探索技术公司
制造商所在国:
美国
使用方式:
暂无
Satellite Introduction
Starlink 计划是 SpaceX 推出的全球卫星互联网项目,通过发射低轨道卫星,为全球尤其是偏远地区提供高速、低延迟的互联网服务。自 2019 年起,Starlink 已部署数千颗卫星,旨在缩小全球数字鸿沟,推动互联网普及。该项目还为军事、航空等行业提供通信支持,带来广泛经济效益。
2D Orbit Map
3D Orbit Map
Orbit Altitude Analysis Chart
Orbit Inclination Analysis Chart
Orbit Comprehensive Analysis Chart
View Comprehensive Chart
Conjunction Data List
Event ID Objects TCA Miss Dist (km) Collision Risk Probability Collision Risk Index (CRI) Action
CDM_260904-105706-394406-782621
2026-09-04T
10:57:18+0000
2.706 km
极远距离
1.390692E-6 低风险 0.38
CDM_260904-145206-394406-782621
2026-09-04T
14:52:48+0000
2.867 km
极远距离
1.28116E-6 低风险 0.37